Location: Unspecified
(0.0000°N, 0.0000°E)
Time: 20:24:09
(UTC+00:00)

deb OV3-4 - Pass Details

Date: 18 April 2026
Orbit: 581 x 4210 km, 40.6° (Epoch: 13 May)

Event Time Altitude Azimuth Distance (km) Brightness Sun altitude
Rises 20:23:13 0° 292° (WNW) 5,864 ? -35.2°
Reaches altitude 10° 20:28:50 10° 279° (W) 4,139 ? -36.6°
Maximum altitude 20:35:57 22° 233° (SW) 2,416 ? -38.3°
Enters shadow 20:37:42 20° 214° (SSW) 2,308 ? -38.7°
